ATLAS 5 CENTAUR DEB, 45474

Orbit data source: Space-Track

ATLAS 5 CENTAUR DEB, 45474 is space debris in HEO originally from a launch on Wed, 17 Oct 2018 UTC launched from the Air Force Eastern Test Range (AFETR). Debris objects in space refer to the collection of defunct objects orbiting the Earth. Examples of debris include non-operational satellites, rocket bodies, and fragments generated from explosions, collisions, or faulty payload assembly.

Loading next visibility...
Identifier
45474, 2018-079BW
Orbit
HEO
Last TLE update
4 days ago
Origin
Flag of USUnited Launch Alliance/Lockheed Martin (US)
Manufacturer
ULA Decatur
Mission
Spacecraft
Bus & Motor
Unknown
Mass
Unknown
Launch date (UTC)
2018-10-17 (7 years ago)
Launch vehicle
Unknown
Launch site
Air Force Eastern Test Range (AFETR)
Object type
Payload
Rocket body
Debris
Shape & HBR
Unknown
Radar Cross Section
RCS unknown

Expand to show TLE details & history

TLE from 4 days ago
0 ATLAS 5 CENTAUR DEB
1 45474U 18079BW  25186.17699301 -.00000131  00000-0  00000+0 0  9992
2 45474  12.4147  88.1401 4488329 204.1022 125.8251  1.74183606 36948
Epoch: 2025-07-05T04:14Z
TLE epoch observation values (Epoch: 2025-07-05T04:14:52.196Z)
Latitude
0.00003°
Longitude
100.97766°
Altitude
33,116.535 km
Speed
2.554 km/s
True Right ascension
05h 52m 27s
True Declination
0° 00' 00"
Sunlit
Object was in daylight at epoch
Visualization orbit readout
Latitude
7.65091°
Longitude
138.13108°
Altitude
35,000.674 km
Speed
2.368 km/s
Apparent Right ascension
08h 19m 36s
Apparent Declination
1° 47' 15"
Sunlit
Object is in daylight
Visualization observer readout
Local Sidereal Time
20:07:19
Azimuth
355.395° N
Elevation
-48.202°
Doppler factor
1
Orbital elements
Apogee altitude
35,899.58 km
Perigee altitude
9,705.213 km
Semi-major axis
29,180.533 km
Eccentricity
0.44883
Inclination
12.4147°
RAAN
88.1401°
Arg. of periapsis
204.1022°
True anomaly
Unknown
Mean anomaly
125.8251°
Eccentric anomaly
Unknown
Mean motion
0.43541 °/min
Orbital period
826.8 mins
BSTAR
0
Loading maneuver chart data...
Loading SW <> Apogee altitude chart data...

ATLAS 5 CENTAUR DEB Visibility forecast

Observer location: undefined°, undefined°

Span
Click to sort rows by Start time (UTC) header in descending order
Start Az.
Max El. time (UTC)
Max El. Az.
Max El.
End time (UTC)
End Az.
740 mins2025-07-09 14:51:44.726Z221.134° SW2025-07-10 01:49:44.726Z200.078° SSW37.615°2025-07-10 03:11:44.726Z125.699° SE
|